M I D A S
Marine Information and Data Acquisition System
Tripno 1153 of the Zeeleeuw from 2006-08-25 06:30:52 to 2006-08-25 13:53:13
Back to CruiseResearch ActivitiesStationsMapUnderway DataData graphs

EquipmentUnitsComments
TimeDGPSUTC
LatitudeDGPSDM.mWGS84
LongitudeDGPSDM.mWGS84
SpeedMeteo Stationm/sRelative wind speed
DirectionMeteo StationdegRelative wind direction
TemperatureMeteo Stationdeg CelciusAir temperature
PressureMeteo StationPaAtmospheric pressure
HumidityMeteo Station%Relative humidity
Missing or incorrect values are displayed as -999
Metereological data collected by the RV Zeeleeuw from 2006-08-25 06:23:06 to 2006-08-25 14:06:03
                                                                                    Next 1000 lines
Time Latitude Longitude Speed Direction Temperature Pressure Humidity
2006-08-25 06:23:16 51°13.603 2°56.092 7.5 76 17.2 100810 83
2006-08-25 06:23:21 51°13.604 2°56.088 7.4 35 17.2 100810 83
2006-08-25 06:23:26 51°13.605 2°56.084 7.6 26 17.2 100810 83
2006-08-25 06:23:32 51°13.606 2°56.078 7.7 36 17.2 100810 83
2006-08-25 06:23:37 51°13.607 2°56.073 7 82 17.2 100810 83
2006-08-25 06:23:42 51°13.609 2°56.067 6.8 39 17.2 100810 83
2006-08-25 06:23:47 51°13.61 2°56.062 6.8 76 17.2 100810 83
2006-08-25 06:23:52 51°13.612 2°56.056 5.9 32 17.2 100810 83
2006-08-25 06:23:56 51°13.613 2°56.052 6.5 82 17.2 100810 83
2006-08-25 06:24:02 51°13.615 2°56.044 7.9 37 17.2 100810 83
2006-08-25 06:24:07 51°13.616 2°56.038 7.4 21 17.2 100810 83
2006-08-25 06:24:11 51°13.617 2°56.032 7.5 40 17.2 100810 83
2006-08-25 06:24:17 51°13.619 2°56.024 8.6 23 17.2 100820 83
2006-08-25 06:24:22 51°13.621 2°56.017 6.2 37 17.2 100820 83
2006-08-25 06:24:27 51°13.623 2°56.009 7 76 17.2 100810 83
2006-08-25 06:24:32 51°13.624 2°56.002 7.2 38 17.2 100810 83
2006-08-25 06:24:37 51°13.626 2°55.994 6.6 21 17.2 100810 83
2006-08-25 06:24:42 51°13.628 2°55.986 8.5 40 17.2 100810 83
2006-08-25 06:24:47 51°13.631 2°55.978 7.8 75 17.2 100820 83
2006-08-25 06:24:52 51°13.633 2°55.97 10.3 35 17.2 100820 83
2006-08-25 06:24:57 51°13.636 2°55.962 8.1 75 17.2 100820 83
2006-08-25 06:25:02 51°13.639 2°55.954 7.6 38 17.2 100820 83
2006-08-25 06:25:06 51°13.641 2°55.947 8.7 28 17.2 100810 83
2006-08-25 06:25:12 51°13.645 2°55.938 7.7 33 17.2 100810 83
2006-08-25 06:25:17 51°13.648 2°55.929 9.1 79 17.2 100810 83
2006-08-25 06:25:22 51°13.65 2°55.921 8.4 38 17.2 100810 83
2006-08-25 06:25:26 51°13.653 2°55.914 7.2 77 17.2 100820 83
2006-08-25 06:25:32 51°13.656 2°55.904 7.2 33 17.2 100820 83
2006-08-25 06:25:37 51°13.659 2°55.895 8.9 78 17.2 100830 84
2006-08-25 06:25:42 51°13.661 2°55.887 8.7 35 17.2 100830 84
2006-08-25 06:25:47 51°13.663 2°55.879 9.2 27 17.2 100820 84
2006-08-25 06:25:52 51°13.665 2°55.871 11.5 36 17.2 100820 84
2006-08-25 06:25:57 51°13.667 2°55.863 10.4 75 17.2 100820 84
2006-08-25 06:26:02 51°13.669 2°55.855 9.1 37 17.2 100820 84
2006-08-25 06:26:06 51°13.671 2°55.849 9.4 27 17.2 100820 83
2006-08-25 06:26:12 51°13.672 2°55.84 9 37 17.2 100820 83
2006-08-25 06:26:17 51°13.674 2°55.832 8 81 17.2 100820 83
2006-08-25 06:26:22 51°13.675 2°55.825 8.1 38 17.2 100820 83
2006-08-25 06:26:27 51°13.677 2°55.817 8.1 81 17.1 100830 83
2006-08-25 06:26:32 51°13.678 2°55.81 7.3 34 17.1 100830 83
2006-08-25 06:26:36 51°13.679 2°55.804 10.4 80 17.1 100830 83
2006-08-25 06:26:42 51°13.68 2°55.795 8 37 17.1 100830 83
2006-08-25 06:26:47 51°13.681 2°55.788 7.8 74 17.2 100820 83
2006-08-25 06:26:52 51°13.681 2°55.781 8.2 269 17.2 100820 83
2006-08-25 06:26:56 51°13.682 2°55.775 6.8 76 17.2 100820 83
2006-08-25 06:27:02 51°13.683 2°55.768 7.2 41 17.2 100820 83
2006-08-25 06:27:06 51°13.683 2°55.763 6.3 22 17.2 100820 83
2006-08-25 06:27:11 51°13.683 2°55.758 7.2 270 17.2 100820 83
2006-08-25 06:27:16 51°13.683 2°55.753 6.9 85 17.2 100820 83
2006-08-25 06:27:21 51°13.683 2°55.75 6.6 44 17.2 100820 83
2006-08-25 06:27:26 51°13.683 2°55.747 6.3 29 17.2 100820 84
2006-08-25 06:27:31 51°13.683 2°55.745 5.2 261 17.2 100820 84
2006-08-25 06:27:36 51°13.683 2°55.744 4.9 277 17.2 100820 84
2006-08-25 06:27:41 51°13.683 2°55.744 4.5 267 17.2 100820 84
2006-08-25 06:27:46 51°13.684 2°55.744 6.5 279 17.2 100830 83
2006-08-25 06:27:51 51°13.684 2°55.744 7.2 256 17.2 100830 83
2006-08-25 06:27:56 51°13.685 2°55.745 5.7 281 17.2 100820 83
2006-08-25 06:28:01 51°13.686 2°55.746 5.3 252 17.2 100820 83
2006-08-25 06:28:06 51°13.687 2°55.747 6.6 252 17.2 100810 83
2006-08-25 06:28:11 51°13.689 2°55.749 6.5 241 17.2 100810 83
2006-08-25 06:28:16 51°13.691 2°55.75 8.2 283 17.2 100810 83
2006-08-25 06:28:20 51°13.693 2°55.751 8.2 239 17.2 100810 83
2006-08-25 06:28:26 51°13.696 2°55.752 7.7 21 17.2 100810 83
2006-08-25 06:28:30 51°13.699 2°55.752 7.1 318 17.2 100810 83
2006-08-25 06:28:36 51°13.703 2°55.751 8.5 318 17.2 100810 83
2006-08-25 06:28:41 51°13.707 2°55.75 7.9 322 17.2 100810 83
2006-08-25 06:28:46 51°13.711 2°55.748 7.9 279 17.2 100810 83
2006-08-25 06:28:51 51°13.716 2°55.744 7.6 327 17.2 100810 83
2006-08-25 06:28:56 51°13.72 2°55.739 7.2 329 17.2 100800 83
2006-08-25 06:29:01 51°13.725 2°55.734 8.9 33 17.2 100800 83
2006-08-25 06:29:06 51°13.731 2°55.728 8.7 329 17.2 100800 83
2006-08-25 06:29:11 51°13.737 2°55.721 7.5 326 17.2 100800 83
2006-08-25 06:29:16 51°13.743 2°55.714 9.6 279 17.1 100800 82
2006-08-25 06:29:21 51°13.749 2°55.707 8.2 334 17.1 100800 82
2006-08-25 06:29:26 51°13.756 2°55.7 8.3 333 17.1 100790 82
2006-08-25 06:29:31 51°13.762 2°55.692 9.3 332 17.1 100790 82
2006-08-25 06:29:36 51°13.77 2°55.685 9.5 279 17.1 100800 82
2006-08-25 06:29:41 51°13.777 2°55.677 9 330 17.1 100800 82
2006-08-25 06:29:46 51°13.785 2°55.67 9.8 333 17.1 100790 83
2006-08-25 06:29:51 51°13.793 2°55.663 9.9 328 17.1 100790 83
2006-08-25 06:29:56 51°13.801 2°55.656 9.6 285 17.1 100800 83
2006-08-25 06:30:01 51°13.81 2°55.65 10.5 333 17.1 100800 83
2006-08-25 06:30:06 51°13.819 2°55.644 7 330 17.2 100800 83
2006-08-25 06:30:10 51°13.826 2°55.639 11.5 324 17.2 100800 83
2006-08-25 06:30:16 51°13.836 2°55.631 9.3 284 17.2 100790 83
2006-08-25 06:30:21 51°13.845 2°55.625 9.3 326 17.2 100790 83
2006-08-25 06:30:26 51°13.855 2°55.618 9.4 327 17.1 100790 83
2006-08-25 06:30:31 51°13.864 2°55.612 11.4 323 17.1 100790 83
2006-08-25 06:30:36 51°13.874 2°55.605 10.4 282 17.2 100790 83
2006-08-25 06:30:40 51°13.881 2°55.599 11.4 320 17.2 100790 83
2006-08-25 06:30:46 51°13.893 2°55.591 11.2 283 17.1 100800 83
2006-08-25 06:30:51 51°13.902 2°55.584 11.9 328 17.1 100800 83
2006-08-25 06:30:56 51°13.912 2°55.577 10.5 331 17.2 100800 83
2006-08-25 06:31:01 51°13.922 2°55.57 10.2 327 17.2 100800 83
2006-08-25 06:31:06 51°13.932 2°55.563 10.5 331 17.2 100790 83
2006-08-25 06:31:11 51°13.942 2°55.556 8.6 321 17.2 100790 83
2006-08-25 06:31:16 51°13.952 2°55.549 11.7 286 17.1 100790 83
2006-08-25 06:31:21 51°13.962 2°55.542 12.4 327 17.1 100790 83
2006-08-25 06:31:26 51°13.972 2°55.535 11.1 283 17.1 100790 83
2006-08-25 06:31:31 51°13.982 2°55.528 9.2 327 17.1 100790 83
2006-08-25 06:31:36 51°13.992 2°55.52 10.4 281 17.1 100780 83
2006-08-25 06:31:41 51°14.002 2°55.514 12.3 326 17.1 100780 83
2006-08-25 06:31:46 51°14.012 2°55.506 11.7 326 17.2 100780 83
2006-08-25 06:31:51 51°14.022 2°55.499 12.8 324 17.2 100780 83
2006-08-25 06:31:56 51°14.032 2°55.492 13.9 322 17.2 100790 83
2006-08-25 06:32:00 51°14.04 2°55.487 13.5 322 17.2 100790 83
2006-08-25 06:32:06 51°14.052 2°55.478 13.7 323 17.2 100790 84
2006-08-25 06:32:10 51°14.059 2°55.473 13.3 324 17.2 100790 84
2006-08-25 06:32:16 51°14.071 2°55.464 13.2 284 17.1 100780 84
2006-08-25 06:32:21 51°14.081 2°55.458 11.6 326 17.1 100780 84
2006-08-25 06:32:26 51°14.091 2°55.451 12.1 326 17.1 100770 84
2006-08-25 06:32:31 51°14.1 2°55.444 13.4 330 17.1 100770 84
2006-08-25 06:32:37 51°14.112 2°55.435 14.2 282 17.1 100770 84
2006-08-25 06:32:41 51°14.119 2°55.429 14.1 326 17.1 100770 84
2006-08-25 06:32:46 51°14.128 2°55.422 12.5 277 17.1 100780 84
2006-08-25 06:32:50 51°14.136 2°55.416 13.3 328 17.1 100780 84
2006-08-25 06:32:56 51°14.147 2°55.406 13.3 327 17.1 100780 84
2006-08-25 06:33:01 51°14.156 2°55.398 12.8 331 17.1 100780 84
2006-08-25 06:33:06 51°14.165 2°55.39 13 328 17.1 100770 84
2006-08-25 06:33:10 51°14.172 2°55.383 12.7 329 17.1 100770 84
2006-08-25 06:33:16 51°14.182 2°55.372 12.4 277 17.1 100770 84
2006-08-25 06:33:21 51°14.191 2°55.362 12.8 329 17.1 100770 84
2006-08-25 06:33:26 51°14.199 2°55.352 13.1 277 17.1 100780 84
2006-08-25 06:33:31 51°14.207 2°55.342 13.5 329 17.1 100780 84
2006-08-25 06:33:36 51°14.215 2°55.331 13.3 281 17.1 100770 84
2006-08-25 06:33:41 51°14.223 2°55.32 13.5 330 17.1 100770 84
2006-08-25 06:33:46 51°14.231 2°55.309 13.3 284 17.1 100790 84
2006-08-25 06:33:50 51°14.237 2°55.3 13.5 331 17.1 100790 84
2006-08-25 06:33:56 51°14.246 2°55.285 13.1 280 17.1 100790 84
2006-08-25 06:34:01 51°14.254 2°55.272 13.6 331 17.1 100790 84
2006-08-25 06:34:06 51°14.261 2°55.259 13.2 331 17.1 100790 84
2006-08-25 06:34:11 51°14.269 2°55.245 12.5 332 17.1 100790 84
2006-08-25 06:34:16 51°14.277 2°55.231 13.3 285 17.1 100780 83
2006-08-25 06:34:21 51°14.285 2°55.217 13 331 17.1 100780 83
2006-08-25 06:34:26 51°14.292 2°55.202 13.6 282 17.1 100790 83
2006-08-25 06:34:30 51°14.298 2°55.19 13.4 332 17.1 100790 83
2006-08-25 06:34:36 51°14.308 2°55.172 13.1 280 17.1 100790 84
2006-08-25 06:34:41 51°14.316 2°55.157 12.6 332 17.1 100790 84
2006-08-25 06:34:46 51°14.324 2°55.142 13.4 330 17.1 100780 83
2006-08-25 06:34:50 51°14.331 2°55.129 12.6 331 17.1 100780 83
2006-08-25 06:34:56 51°14.341 2°55.11 14.8 280 17.1 100790 83
2006-08-25 06:35:01 51°14.349 2°55.093 14.4 335 17.1 100790 83
2006-08-25 06:35:06 51°14.357 2°55.077 13.1 331 17.1 100790 83
2006-08-25 06:35:10 51°14.365 2°55.064 13.1 332 17.1 100790 83
2006-08-25 06:35:16 51°14.375 2°55.043 14.1 332 17.1 100800 84
2006-08-25 06:35:21 51°14.384 2°55.026 13.6 334 17.1 100800 84
2006-08-25 06:35:26 51°14.393 2°55.008 14.3 333 17.1 100790 84
2006-08-25 06:35:30 51°14.401 2°54.994 13 335 17.1 100790 84
2006-08-25 06:35:36 51°14.411 2°54.972 12.6 337 17.1 100780 84
2006-08-25 06:35:41 51°14.419 2°54.952 14.8 340 17.1 100780 84
2006-08-25 06:35:46 51°14.426 2°54.933 15.7 282 17.2 100790 85
2006-08-25 06:35:51 51°14.434 2°54.913 14.9 337 17.2 100790 85
2006-08-25 06:35:56 51°14.442 2°54.893 15.4 282 17.2 100790 85
2006-08-25 06:36:01 51°14.449 2°54.872 13.7 339 17.2 100790 85
2006-08-25 06:36:06 51°14.456 2°54.85 13.9 337 17.2 100790 85
2006-08-25 06:36:11 51°14.462 2°54.828 14.2 337 17.2 100790 85
2006-08-25 06:36:16 51°14.468 2°54.805 14.6 279 17.2 100770 84
2006-08-25 06:36:21 51°14.475 2°54.782 14.2 337 17.2 100770 84
2006-08-25 06:36:26 51°14.481 2°54.759 15 337 17.2 100780 84
2006-08-25 06:36:31 51°14.488 2°54.736 13.3 338 17.2 100780 84
2006-08-25 06:36:36 51°14.494 2°54.713 13.9 285 17.2 100780 84
2006-08-25 06:36:40 51°14.5 2°54.694 14.8 336 17.2 100780 84
2006-08-25 06:36:45 51°14.506 2°54.671 13.9 277 17.1 100780 83
2006-08-25 06:36:51 51°14.514 2°54.643 14.4 338 17.1 100780 83
2006-08-25 06:36:56 51°14.522 2°54.619 12.5 277 17.1 100780 83
2006-08-25 06:37:00 51°14.527 2°54.6 13.7 335 17.1 100780 83
2006-08-25 06:37:06 51°14.536 2°54.573 14.8 336 17.1 100780 83
2006-08-25 06:37:11 51°14.543 2°54.549 13.6 335 17.1 100780 83
2006-08-25 06:37:16 51°14.55 2°54.525 15.2 336 17.1 100790 83
2006-08-25 06:37:21 51°14.556 2°54.501 14.5 336 17.1 100790 83
2006-08-25 06:37:26 51°14.564 2°54.477 14.8 280 17.2 100790 84
2006-08-25 06:37:31 51°14.57 2°54.453 14.2 335 17.2 100790 84
2006-08-25 06:37:36 51°14.578 2°54.429 14.8 286 17.1 100780 84
2006-08-25 06:37:41 51°14.585 2°54.405 15.2 337 17.1 100780 84
2006-08-25 06:37:46 51°14.593 2°54.382 13.6 284 17.2 100780 84
2006-08-25 06:37:51 51°14.6 2°54.357 14.1 335 17.2 100780 84
2006-08-25 06:37:56 51°14.607 2°54.333 14.3 280 17.2 100790 84
2006-08-25 06:38:01 51°14.614 2°54.309 14.6 335 17.2 100790 84
2006-08-25 06:38:06 51°14.621 2°54.284 14.2 335 17.2 100780 84
2006-08-25 06:38:11 51°14.628 2°54.26 14.5 336 17.2 100780 84
2006-08-25 06:38:16 51°14.634 2°54.235 15.2 335 17.2 100780 84
2006-08-25 06:38:20 51°14.64 2°54.214 15 336 17.2 100780 84
2006-08-25 06:38:25 51°14.646 2°54.191 15 336 17.2 100790 84
2006-08-25 06:38:31 51°14.652 2°54.162 15.1 338 17.2 100790 84
2006-08-25 06:38:36 51°14.659 2°54.135 14.3 284 17.2 100780 84
2006-08-25 06:38:40 51°14.664 2°54.116 13.9 337 17.2 100780 84
2006-08-25 06:38:46 51°14.672 2°54.087 14.3 337 17.2 100780 84
2006-08-25 06:38:51 51°14.679 2°54.063 14.4 337 17.2 100780 84
2006-08-25 06:38:56 51°14.686 2°54.038 14.5 282 17.2 100780 84
2006-08-25 06:39:01 51°14.694 2°54.014 14.5 337 17.2 100780 84
2006-08-25 06:39:06 51°14.701 2°53.991 15.1 336 17.2 100780 84
2006-08-25 06:39:11 51°14.708 2°53.967 16.2 335 17.2 100780 84
2006-08-25 06:39:16 51°14.715 2°53.943 15.5 283 17.2 100780 84
2006-08-25 06:39:21 51°14.723 2°53.919 14.3 338 17.2 100780 84
2006-08-25 06:39:26 51°14.73 2°53.896 14 280 17.2 100780 84
2006-08-25 06:39:31 51°14.737 2°53.872 13.7 338 17.2 100780 84
2006-08-25 06:39:36 51°14.745 2°53.849 14.2 340 17.2 100780 84
2006-08-25 06:39:41 51°14.751 2°53.825 14 339 17.2 100780 84
2006-08-25 06:39:46 51°14.758 2°53.801 13.5 281 17.2 100780 84
2006-08-25 06:39:51 51°14.765 2°53.777 15 340 17.2 100780 84
2006-08-25 06:39:56 51°14.772 2°53.753 13.7 337 17.2 100770 84
2006-08-25 06:40:01 51°14.779 2°53.729 13.7 340 17.2 100770 84
2006-08-25 06:40:06 51°14.786 2°53.706 15 340 17.1 100790 84
2006-08-25 06:40:11 51°14.793 2°53.682 13.3 339 17.1 100790 84
2006-08-25 06:40:16 51°14.8 2°53.658 14.3 284 17.2 100780 84
2006-08-25 06:40:21 51°14.807 2°53.634 13.4 336 17.2 100780 84
2006-08-25 06:40:26 51°14.814 2°53.611 14.2 278 17.2 100780 84
2006-08-25 06:40:30 51°14.82 2°53.592 13.8 337 17.2 100780 84
2006-08-25 06:40:36 51°14.829 2°53.563 14.1 281 17.2 100780 85
2006-08-25 06:40:41 51°14.837 2°53.54 14 338 17.2 100780 85
2006-08-25 06:40:46 51°14.844 2°53.516 14.5 337 17.2 100780 85
2006-08-25 06:40:50 51°14.85 2°53.498 14.4 336 17.2 100780 85
2006-08-25 06:40:56 51°14.858 2°53.47 14 280 17.2 100780 85
2006-08-25 06:41:01 51°14.866 2°53.446 13 337 17.2 100780 85
2006-08-25 06:41:06 51°14.873 2°53.423 13.4 335 17.2 100780 85
2006-08-25 06:41:10 51°14.878 2°53.404 15.4 334 17.2 100780 85
2006-08-25 06:41:16 51°14.887 2°53.375 14.1 285 17.2 100780 84
2006-08-25 06:41:21 51°14.895 2°53.351 14.1 335 17.2 100780 84
2006-08-25 06:41:25 51°14.9 2°53.333 15.1 277 17.2 100770 85
2006-08-25 06:41:31 51°14.908 2°53.304 15.1 337 17.2 100770 85
2006-08-25 06:41:36 51°14.915 2°53.279 13.9 281 17.2 100780 85
2006-08-25 06:41:41 51°14.922 2°53.256 14 337 17.2 100780 85
2006-08-25 06:41:46 51°14.929 2°53.231 14 281 17.2 100790 84
2006-08-25 06:41:51 51°14.935 2°53.207 15.7 340 17.2 100790 84
2006-08-25 06:41:55 51°14.94 2°53.187 14.4 338 17.1 100770 84
2006-08-25 06:42:01 51°14.948 2°53.157 15.5 338 17.1 100770 84
2006-08-25 06:42:06 51°14.955 2°53.133 15.4 339 17.2 100790 84
2006-08-25 06:42:10 51°14.96 2°53.113 13.6 337 17.2 100790 84
2006-08-25 06:42:16 51°14.969 2°53.084 14.8 284 17.2 100790 84
2006-08-25 06:42:21 51°14.976 2°53.06 14.7 337 17.2 100790 84
2006-08-25 06:42:26 51°14.983 2°53.035 14.2 283 17.1 100790 84
2006-08-25 06:42:31 51°14.99 2°53.01 15.1 337 17.1 100790 84
2006-08-25 06:42:36 51°14.996 2°52.987 15.8 280 17.1 100780 84
2006-08-25 06:42:41 51°15.004 2°52.961 15.3 338 17.1 100780 84
2006-08-25 06:42:46 51°15.011 2°52.937 13.1 280 17.1 100790 83
2006-08-25 06:42:51 51°15.017 2°52.913 14.8 339 17.1 100790 83
2006-08-25 06:42:56 51°15.024 2°52.887 14.2 281 17.1 100790 84
2006-08-25 06:43:01 51°15.03 2°52.863 13.9 339 17.1 100790 84
2006-08-25 06:43:06 51°15.036 2°52.837 15.4 342 17.1 100780 84
2006-08-25 06:43:11 51°15.041 2°52.811 14.6 342 17.1 100780 84
2006-08-25 06:43:16 51°15.047 2°52.786 13.9 281 17.1 100790 84
2006-08-25 06:43:20 51°15.052 2°52.765 14.1 341 17.1 100790 84
2006-08-25 06:43:26 51°15.059 2°52.734 13 337 17.1 100780 83
2006-08-25 06:43:30 51°15.063 2°52.713 13.7 340 17.1 100780 83
2006-08-25 06:43:36 51°15.07 2°52.684 13.9 281 17.1 100770 83
2006-08-25 06:43:41 51°15.076 2°52.657 13.8 339 17.1 100770 83
2006-08-25 06:43:46 51°15.082 2°52.632 14.3 339 17.1 100790 83
2006-08-25 06:43:50 51°15.087 2°52.612 13.8 339 17.1 100790 83
2006-08-25 06:43:56 51°15.094 2°52.581 13.2 281 17.2 100790 84
2006-08-25 06:44:01 51°15.099 2°52.556 13.6 340 17.2 100790 84
2006-08-25 06:44:06 51°15.105 2°52.529 14.1 342 17.2 100780 84
2006-08-25 06:44:11 51°15.11 2°52.504 14.6 339 17.2 100780 84
2006-08-25 06:44:16 51°15.116 2°52.478 14 286 17.2 100790 84
2006-08-25 06:44:21 51°15.12 2°52.453 14.1 339 17.2 100790 84
2006-08-25 06:44:26 51°15.126 2°52.426 14.1 282 17.2 100790 84
2006-08-25 06:44:30 51°15.13 2°52.406 13.4 340 17.2 100790 84
2006-08-25 06:44:36 51°15.137 2°52.376 12.9 279 17.2 100790 84
2006-08-25 06:44:41 51°15.143 2°52.349 13.4 337 17.2 100790 84
2006-08-25 06:44:46 51°15.148 2°52.325 14.3 280 17.2 100800 84
2006-08-25 06:44:51 51°15.155 2°52.299 14.9 339 17.2 100800 84
2006-08-25 06:44:56 51°15.161 2°52.274 14.9 282 17.2 100780 84
2006-08-25 06:45:01 51°15.167 2°52.249 14.9 341 17.2 100780 84
2006-08-25 06:45:06 51°15.173 2°52.224 14.5 341 17.2 100780 84
2006-08-25 06:45:11 51°15.179 2°52.199 14.9 340 17.2 100780 84
2006-08-25 06:45:16 51°15.185 2°52.173 15 278 17.2 100770 83
2006-08-25 06:45:21 51°15.191 2°52.148 15.6 341 17.2 100770 83
2006-08-25 06:45:26 51°15.197 2°52.123 15.6 281 17.2 100790 83
2006-08-25 06:45:31 51°15.202 2°52.097 14.2 342 17.2 100790 83
2006-08-25 06:45:36 51°15.208 2°52.071 14.9 283 17.2 100790 82
2006-08-25 06:45:41 51°15.214 2°52.046 14 339 17.2 100790 82
2006-08-25 06:45:46 51°15.22 2°52.021 14.7 285 17.1 100780 82
2006-08-25 06:45:51 51°15.226 2°51.995 13.6 340 17.1 100780 82
2006-08-25 06:45:56 51°15.231 2°51.969 13 280 17.1 100780 81
2006-08-25 06:46:01 51°15.237 2°51.943 15.1 342 17.1 100780 81
2006-08-25 06:46:06 51°15.243 2°51.918 16.4 341 17.1 100780 82
2006-08-25 06:46:11 51°15.248 2°51.891 14.5 341 17.1 100780 82
2006-08-25 06:46:16 51°15.254 2°51.866 15.9 279 17.2 100790 82
2006-08-25 06:46:20 51°15.258 2°51.845 14.9 342 17.2 100790 82
2006-08-25 06:46:26 51°15.263 2°51.813 14.8 281 17.2 100780 82
2006-08-25 06:46:31 51°15.267 2°51.786 14.2 344 17.2 100780 82
2006-08-25 06:46:35 51°15.271 2°51.766 13.8 281 17.1 100780 81
2006-08-25 06:46:41 51°15.276 2°51.733 13.6 341 17.1 100780 81
2006-08-25 06:46:46 51°15.279 2°51.706 14 283 17.1 100780 81
2006-08-25 06:46:51 51°15.283 2°51.679 13.9 342 17.1 100780 81
2006-08-25 06:46:55 51°15.285 2°51.657 14.4 283 17.1 100780 80
2006-08-25 06:47:02 51°15.289 2°51.619 14.1 345 17.1 100780 80
2006-08-25 06:47:06 51°15.291 2°51.597 13.8 345 17.1 100790 81
2006-08-25 06:47:11 51°15.292 2°51.569 13.7 349 17.1 100790 81
2006-08-25 06:47:16 51°15.292 2°51.542 13.6 349 17.1 100790 81
2006-08-25 06:47:21 51°15.291 2°51.513 12.5 348 17.1 100790 81
2006-08-25 06:47:26 51°15.29 2°51.485 12.7 351 17.1 100780 81
2006-08-25 06:47:31 51°15.288 2°51.457 12.9 351 17.1 100780 81
2006-08-25 06:47:36 51°15.285 2°51.428 12.6 351 17.1 100780 81
2006-08-25 06:47:41 51°15.283 2°51.401 13.7 351 17.1 100780 81
2006-08-25 06:47:46 51°15.28 2°51.372 12.7 353 17.1 100780 81
2006-08-25 06:47:51 51°15.277 2°51.345 12.3 351 17.1 100780 81
2006-08-25 06:47:56 51°15.274 2°51.317 12.3 277 17.1 100790 81
2006-08-25 06:48:01 51°15.272 2°51.289 12.6 349 17.1 100790 81
2006-08-25 06:48:06 51°15.269 2°51.26 13.3 350 17.1 100790 81
2006-08-25 06:48:11 51°15.267 2°51.232 12.3 350 17.1 100790 81
2006-08-25 06:48:16 51°15.265 2°51.205 12.9 348 17.1 100790 81
2006-08-25 06:48:21 51°15.264 2°51.176 14 347 17.1 100790 81
2006-08-25 06:48:26 51°15.262 2°51.148 14.2 350 17.1 100790 81
2006-08-25 06:48:31 51°15.26 2°51.119 13.7 351 17.1 100790 81
2006-08-25 06:48:36 51°15.258 2°51.091 13.2 276 17.1 100800 82
2006-08-25 06:48:41 51°15.257 2°51.063 13.1 351 17.1 100800 82
2006-08-25 06:48:46 51°15.256 2°51.035 13.3 278 17.1 100780 81
2006-08-25 06:48:51 51°15.254 2°51.006 13.4 345 17.1 100780 81
2006-08-25 06:48:56 51°15.254 2°50.978 13.6 281 17.1 100780 81
2006-08-25 06:49:01 51°15.253 2°50.949 12.8 346 17.1 100780 81
2006-08-25 06:49:06 51°15.252 2°50.921 13.6 350 17.1 100780 81
2006-08-25 06:49:11 51°15.252 2°50.892 13.1 347 17.1 100780 81
2006-08-25 06:49:16 51°15.25 2°50.865 13.6 282 17.1 100790 81
2006-08-25 06:49:21 51°15.25 2°50.836 13.3 347 17.1 100790 81
2006-08-25 06:49:26 51°15.248 2°50.808 13.2 282 17.1 100790 82
2006-08-25 06:49:31 51°15.247 2°50.779 13.3 348 17.1 100790 82
2006-08-25 06:49:36 51°15.246 2°50.751 14.4 281 17.1 100780 82
2006-08-25 06:49:41 51°15.245 2°50.722 12.8 344 17.1 100780 82
2006-08-25 06:49:46 51°15.244 2°50.694 15.1 278 17.1 100780 82
2006-08-25 06:49:51 51°15.243 2°50.665 12.9 346 17.1 100780 82
2006-08-25 06:49:56 51°15.243 2°50.638 13.1 281 17 100800 82
2006-08-25 06:50:01 51°15.241 2°50.609 14.2 348 17 100800 82
2006-08-25 06:50:06 51°15.24 2°50.581 13.4 347 17.1 100780 82
2006-08-25 06:50:11 51°15.239 2°50.554 12.9 347 17.1 100780 82
2006-08-25 06:50:16 51°15.238 2°50.525 14.5 283 17.1 100790 81
2006-08-25 06:50:21 51°15.236 2°50.498 15.2 346 17.1 100790 81
2006-08-25 06:50:26 51°15.234 2°50.469 13.8 345 17.1 100780 82
2006-08-25 06:50:30 51°15.233 2°50.447 13.8 348 17.1 100780 82
2006-08-25 06:50:36 51°15.233 2°50.413 13.8 281 17.1 100800 82
2006-08-25 06:50:41 51°15.232 2°50.386 14.1 348 17.1 100800 82
2006-08-25 06:50:46 51°15.231 2°50.357 13.6 278 17.1 100800 82
2006-08-25 06:50:51 51°15.23 2°50.329 12.1 348 17.1 100800 82
2006-08-25 06:50:56 51°15.229 2°50.302 13.2 348 17.1 100790 82
2006-08-25 06:51:01 51°15.228 2°50.273 12.9 347 17.1 100790 82
2006-08-25 06:51:06 51°15.228 2°50.245 12.2 348 17.1 100810 82
2006-08-25 06:51:11 51°15.228 2°50.217 13.4 348 17.1 100810 82
2006-08-25 06:51:16 51°15.227 2°50.189 12.4 347 17.1 100790 83
2006-08-25 06:51:21 51°15.227 2°50.16 13.1 347 17.1 100790 83
2006-08-25 06:51:26 51°15.226 2°50.133 13.2 348 17.1 100780 82
2006-08-25 06:51:31 51°15.226 2°50.105 13 346 17.1 100780 82
2006-08-25 06:51:35 51°15.225 2°50.082 12.3 280 17.1 100800 82
2006-08-25 06:51:41 51°15.226 2°50.047 12.5 344 17.1 100800 82
2006-08-25 06:51:46 51°15.226 2°50.02 14.5 279 17.1 100800 83
2006-08-25 06:51:51 51°15.225 2°49.992 14.3 345 17.1 100800 83
2006-08-25 06:51:56 51°15.226 2°49.963 14 281 17.1 100790 83
2006-08-25 06:52:01 51°15.226 2°49.936 14.3 344 17.1 100790 83
2006-08-25 06:52:06 51°15.226 2°49.908 14.7 345 17.1 100790 83
2006-08-25 06:52:11 51°15.225 2°49.879 14 346 17.1 100790 83
2006-08-25 06:52:16 51°15.226 2°49.852 13.5 280 17.1 100800 82
2006-08-25 06:52:21 51°15.225 2°49.824 13.8 347 17.1 100800 82
2006-08-25 06:52:25 51°15.225 2°49.801 13.9 278 17.1 100800 82
2006-08-25 06:52:31 51°15.226 2°49.767 12.7 346 17.1 100800 82
2006-08-25 06:52:36 51°15.225 2°49.739 12.5 347 17.1 100790 82
2006-08-25 06:52:41 51°15.226 2°49.71 13.1 347 17.1 100790 82
2006-08-25 06:52:46 51°15.225 2°49.683 13.6 344 17.1 100790 82
2006-08-25 06:52:50 51°15.225 2°49.661 13.6 343 17.1 100790 82
2006-08-25 06:52:56 51°15.225 2°49.626 15 347 17.1 100790 82
2006-08-25 06:53:01 51°15.224 2°49.598 15.2 346 17.1 100790 82
2006-08-25 06:53:06 51°15.224 2°49.569 15 347 17.1 100790 82
2006-08-25 06:53:11 51°15.224 2°49.542 13.3 347 17.1 100790 82
2006-08-25 06:53:16 51°15.224 2°49.514 13.1 281 17.1 100800 82
2006-08-25 06:53:20 51°15.224 2°49.492 13.2 345 17.1 100800 82
2006-08-25 06:53:26 51°15.223 2°49.458 13.8 279 17.1 100800 82
2006-08-25 06:53:31 51°15.223 2°49.429 12.8 345 17.1 100800 82
2006-08-25 06:53:36 51°15.223 2°49.401 12.8 347 17.1 100800 82
2006-08-25 06:53:41 51°15.223 2°49.373 13.5 346 17.1 100800 82
2006-08-25 06:53:46 51°15.223 2°49.345 13.3 346 17.2 100790 83
2006-08-25 06:53:51 51°15.223 2°49.316 13.4 350 17.2 100790 83
2006-08-25 06:53:56 51°15.223 2°49.288 13.3 349 17.2 100800 83
2006-08-25 06:54:01 51°15.223 2°49.26 12.9 348 17.2 100800 83
2006-08-25 06:54:06 51°15.223 2°49.232 13.6 348 17.1 100790 82
2006-08-25 06:54:11 51°15.222 2°49.204 12.5 345 17.1 100790 82
2006-08-25 06:54:16 51°15.222 2°49.175 13.4 282 17.1 100790 82
2006-08-25 06:54:20 51°15.222 2°49.152 13.6 348 17.1 100790 82
2006-08-25 06:54:26 51°15.22 2°49.118 12.4 346 17.1 100790 82
2006-08-25 06:54:30 51°15.22 2°49.096 12.3 342 17.1 100790 82
2006-08-25 06:54:36 51°15.22 2°49.062 13.3 277 17.1 100790 83
2006-08-25 06:54:41 51°15.22 2°49.035 13.1 345 17.1 100790 83
2006-08-25 06:54:46 51°15.22 2°49.005 13.4 278 17.1 100790 82
2006-08-25 06:54:50 51°15.22 2°48.983 13.2 346 17.1 100790 82
2006-08-25 06:54:56 51°15.219 2°48.949 12.5 277 17.1 100810 83
2006-08-25 06:55:01 51°15.219 2°48.921 12.3 345 17.1 100810 83
2006-08-25 06:55:06 51°15.219 2°48.893 14 344 17.2 100800 83
2006-08-25 06:55:11 51°15.218 2°48.866 13.5 348 17.2 100800 83
2006-08-25 06:55:16 51°15.218 2°48.837 13.1 281 17.1 100800 83
2006-08-25 06:55:21 51°15.218 2°48.809 13.3 343 17.1 100800 83
2006-08-25 06:55:26 51°15.218 2°48.781 14.4 277 17.1 100800 83
2006-08-25 06:55:31 51°15.218 2°48.753 13.7 346 17.1 100800 83
2006-08-25 06:55:36 51°15.218 2°48.725 13.1 346 17.1 100800 83
2006-08-25 06:55:41 51°15.218 2°48.697 12.7 348 17.1 100800 84
2006-08-25 06:55:45 51°15.217 2°48.675 12.9 277 17.1 100800 84
2006-08-25 06:55:51 51°15.217 2°48.641 13.6 346 17.1 100800 84
2006-08-25 06:55:56 51°15.216 2°48.613 13.4 347 17.1 100790 83
2006-08-25 06:56:01 51°15.216 2°48.585 12.9 348 17.1 100790 83
2006-08-25 06:56:05 51°15.216 2°48.563 13.5 350 17.1 100790 83
2006-08-25 06:56:11 51°15.216 2°48.53 12.8 350 17.1 100800 84
2006-08-25 06:56:15 51°15.216 2°48.507 12.2 280 17.1 100800 84
2006-08-25 06:56:21 51°15.215 2°48.473 12.5 350 17.1 100800 84
2006-08-25 06:56:26 51°15.215 2°48.445 13 281 17.1 100790 83
2006-08-25 06:56:31 51°15.215 2°48.417 13.2 346 17.1 100800 83
2006-08-25 06:56:36 51°15.215 2°48.389 13.4 280 17.1 100800 83
2006-08-25 06:56:41 51°15.215 2°48.361 13.4 346 17.1 100800 83
2006-08-25 06:56:46 51°15.215 2°48.333 12.9 280 17.1 100800 83
2006-08-25 06:56:51 51°15.214 2°48.305 12.8 346 17.1 100790 83
2006-08-25 06:56:56 51°15.214 2°48.276 12.4 282 17.1 100790 83
2006-08-25 06:57:01 51°15.214 2°48.249 13.2 347 17.1 100790 83
2006-08-25 06:57:05 51°15.214 2°48.226 13 278 17.1 100800 83
2006-08-25 06:57:11 51°15.213 2°48.193 13 347 17.1 100800 83
2006-08-25 06:57:16 51°15.214 2°48.165 13.8 283 17.1 100800 83
2006-08-25 06:57:21 51°15.214 2°48.137 12.4 344 17.1 100800 83
2006-08-25 06:57:25 51°15.215 2°48.115 13.8 283 17.1 100800 83
2006-08-25 06:57:31 51°15.215 2°48.081 14.8 344 17.1 100800 83
2006-08-25 06:57:36 51°15.216 2°48.053 14.3 286 17 100800 83
2006-08-25 06:57:41 51°15.217 2°48.026 14.4 345 17.1 100800 83
2006-08-25 06:57:45 51°15.217 2°48.004 14.6 346 17.1 100800 83
2006-08-25 06:57:51 51°15.218 2°47.971 12.5 344 17.1 100800 83
2006-08-25 06:57:55 51°15.218 2°47.949 13.6 281 17.1 100800 83
2006-08-25 06:58:01 51°15.218 2°47.916 13.2 346 17.1 100800 82
2006-08-25 06:58:05 51°15.219 2°47.894 12.7 282 17.1 100800 82
2006-08-25 06:58:11 51°15.219 2°47.861 12.4 346 17.1 100800 82
2006-08-25 06:58:16 51°15.217 2°47.834 13.9 277 17.1 100800 82
2006-08-25 06:58:21 51°15.217 2°47.805 12.9 347 17.1 100790 83
2006-08-25 06:58:26 51°15.217 2°47.778 12.7 347 17.1 100790 83
2006-08-25 06:58:31 51°15.217 2°47.751 12.5 343 17.1 100800 82
2006-08-25 06:58:35 51°15.217 2°47.729 14.2 284 17.1 100800 82
2006-08-25 06:58:41 51°15.218 2°47.696 13.4 345 17.1 100790 82
2006-08-25 06:58:46 51°15.218 2°47.669 12.9 346 17.1 100790 82
2006-08-25 06:58:51 51°15.219 2°47.641 12.8 347 17.1 100810 82
2006-08-25 06:58:56 51°15.219 2°47.614 12.1 282 17.1 100810 82
2006-08-25 06:59:01 51°15.22 2°47.585 14 347 17.1 100810 82
2006-08-25 06:59:05 51°15.22 2°47.563 12.6 283 17.1 100810 82
2006-08-25 06:59:11 51°15.22 2°47.531 12.6 348 17.1 100810 82
2006-08-25 06:59:16 51°15.221 2°47.503 13 281 17.1 100810 82
2006-08-25 06:59:21 51°15.22 2°47.475 13.9 347 17.1 100810 83
2006-08-25 06:59:25 51°15.22 2°47.453 15.3 280 17.1 100810 83
2006-08-25 06:59:31 51°15.22 2°47.42 14.6 347 17.1 100820 83
2006-08-25 06:59:35 51°15.22 2°47.397 13.8 276 17.1 100820 83
2006-08-25 06:59:41 51°15.22 2°47.365 13.4 347 17.1 100810 82
2006-08-25 06:59:46 51°15.22 2°47.337 13.2 347 17.1 100810 82
2006-08-25 06:59:51 51°15.22 2°47.309 12.4 347 17.1 100810 82
2006-08-25 06:59:56 51°15.221 2°47.282 13 277 17.1 100810 82
2006-08-25 07:00:01 51°15.221 2°47.255 12.4 347 17.1 100810 82
2006-08-25 07:00:06 51°15.221 2°47.227 14 280 17.1 100810 82
2006-08-25 07:00:11 51°15.221 2°47.199 14.2 348 17.1 100800 83
2006-08-25 07:00:16 51°15.221 2°47.171 14.2 280 17.1 100800 83
2006-08-25 07:00:21 51°15.221 2°47.144 14.4 346 17.1 100800 83
2006-08-25 07:00:26 51°15.222 2°47.116 14.7 348 17.1 100800 83
2006-08-25 07:00:31 51°15.223 2°47.089 14 344 17.1 100810 82
2006-08-25 07:00:35 51°15.224 2°47.066 14.4 279 17.1 100810 82
2006-08-25 07:00:41 51°15.225 2°47.034 14.3 343 17.1 100800 82
2006-08-25 07:00:46 51°15.225 2°47.006 14.2 346 17.1 100800 82
2006-08-25 07:00:50 51°15.227 2°46.984 13.9 346 17.1 100800 82
2006-08-25 07:00:56 51°15.227 2°46.951 12.7 281 17.1 100800 82
2006-08-25 07:01:01 51°15.228 2°46.924 12.9 346 17.1 100800 82
2006-08-25 07:01:05 51°15.228 2°46.901 13.4 349 17.1 100810 82
2006-08-25 07:01:11 51°15.229 2°46.869 13.3 349 17 100800 82
2006-08-25 07:01:16 51°15.229 2°46.84 12.3 278 17 100800 82
2006-08-25 07:01:21 51°15.23 2°46.813 12.4 346 17 100800 82
2006-08-25 07:01:26 51°15.231 2°46.785 13.5 345 17.1 100810 82
2006-08-25 07:01:31 51°15.231 2°46.757 13.4 344 17.1 100810 82
2006-08-25 07:01:36 51°15.232 2°46.73 13.6 281 17.1 100810 82
2006-08-25 07:01:41 51°15.233 2°46.701 14.2 347 17.1 100810 82
2006-08-25 07:01:45 51°15.233 2°46.679 13.7 282 17.1 100810 82
2006-08-25 07:01:51 51°15.234 2°46.646 13.1 345 17.1 100800 83
2006-08-25 07:01:56 51°15.234 2°46.619 13.2 281 17.1 100800 83
2006-08-25 07:02:01 51°15.235 2°46.591 12.8 343 17.1 100800 83
2006-08-25 07:02:05 51°15.235 2°46.569 13.4 277 17.1 100800 83
2006-08-25 07:02:11 51°15.236 2°46.535 13.3 343 17.1 100810 83
2006-08-25 07:02:16 51°15.237 2°46.507 13 279 17.1 100810 83
2006-08-25 07:02:21 51°15.237 2°46.479 13.5 345 17.1 100810 83
2006-08-25 07:02:26 51°15.238 2°46.451 12.1 347 17.1 100810 83
2006-08-25 07:02:31 51°15.238 2°46.424 13.4 345 17.1 100810 83
2006-08-25 07:02:36 51°15.239 2°46.395 12.4 277 17.1 100810 83
2006-08-25 07:02:41 51°15.24 2°46.368 12.7 345 17.1 100810 83
2006-08-25 07:02:46 51°15.24 2°46.34 12.8 276 17.1 100810 83
2006-08-25 07:02:51 51°15.241 2°46.312 12.6 345 17.1 100810 83
2006-08-25 07:02:55 51°15.242 2°46.29 14.1 283 17.1 100810 83
2006-08-25 07:03:01 51°15.243 2°46.256 13 347 17.1 100810 83
2006-08-25 07:03:06 51°15.243 2°46.228 12.6 345 17.1 100810 83
2006-08-25 07:03:11 51°15.244 2°46.199 14.3 349 17.1 100810 83
2006-08-25 07:03:16 51°15.245 2°46.172 13.1 282 17.1 100810 83
2006-08-25 07:03:21 51°15.245 2°46.144 13.4 348 17 100800 82
2006-08-25 07:03:26 51°15.246 2°46.115 13.8 285 17 100800 82
2006-08-25 07:03:31 51°15.247 2°46.088 15 346 17 100810 82
2006-08-25 07:03:36 51°15.247 2°46.06 14.2 282 17 100810 82
2006-08-25 07:03:41 51°15.248 2°46.032 14.3 345 17.1 100820 83
2006-08-25 07:03:46 51°15.249 2°46.005 15.4 346 17.1 100820 83
2006-08-25 07:03:51 51°15.249 2°45.976 14.5 345 17.1 100800 83
2006-08-25 07:03:55 51°15.249 2°45.954 14.5 281 17.1 100800 83
2006-08-25 07:04:01 51°15.25 2°45.921 12.9 346 17.1 100800 83
2006-08-25 07:04:06 51°15.251 2°45.893 13.6 281 17.1 100800 83
2006-08-25 07:04:11 51°15.251 2°45.865 14.5 344 17 100810 82
2006-08-25 07:04:16 51°15.252 2°45.838 14.5 283 17 100810 82
2006-08-25 07:04:21 51°15.252 2°45.81 14.1 343 17 100810 82
2006-08-25 07:04:25 51°15.253 2°45.788 14.2 280 17 100810 82
2006-08-25 07:04:31 51°15.254 2°45.754 14.3 346 17 100810 82
2006-08-25 07:04:36 51°15.255 2°45.726 14.5 281 17 100810 82
2006-08-25 07:04:40 51°15.255 2°45.704 14.5 347 17 100810 82
2006-08-25 07:04:45 51°15.257 2°45.675 13.9 345 17 100810 82
2006-08-25 07:04:51 51°15.257 2°45.642 14.3 347 17 100810 82
2006-08-25 07:04:56 51°15.258 2°45.614 14 279 17 100810 82
2006-08-25 07:05:01 51°15.258 2°45.587 14 347 17 100810 82
2006-08-25 07:05:06 51°15.259 2°45.558 14 282 17 100810 82
2006-08-25 07:05:09 51°15.26 2°45.542 13.3 346 17 100800 82
2006-08-25 07:05:16 51°15.261 2°45.503 12.8 277 17 100800 82
2006-08-25 07:05:21 51°15.262 2°45.475 13.7 345 17 100800 82
2006-08-25 07:05:26 51°15.263 2°45.447 12.9 347 17.1 100820 82
2006-08-25 07:05:31 51°15.264 2°45.418 14.3 347 17.1 100810 83
2006-08-25 07:05:36 51°15.265 2°45.391 13.3 280 17.1 100810 83
2006-08-25 07:05:41 51°15.266 2°45.363 13.1 346 17.1 100820 83
2006-08-25 07:05:46 51°15.267 2°45.336 13.4 279 17.1 100820 83
2006-08-25 07:05:51 51°15.268 2°45.307 13.6 345 17.1 100810 82
2006-08-25 07:05:56 51°15.269 2°45.279 13.4 282 17.1 100810 82
2006-08-25 07:06:01 51°15.27 2°45.251 13.6 348 17.1 100810 81
2006-08-25 07:06:05 51°15.271 2°45.228 13.7 281 17.1 100810 81
2006-08-25 07:06:11 51°15.272 2°45.195 13.1 343 17 100810 82
2006-08-25 07:06:16 51°15.273 2°45.167 14.4 283 17 100810 82
2006-08-25 07:06:21 51°15.275 2°45.14 13.8 344 17 100810 81
2006-08-25 07:06:26 51°15.275 2°45.112 14.5 281 17 100810 81
2006-08-25 07:06:31 51°15.276 2°45.083 14.1 345 17 100810 81
2006-08-25 07:06:35 51°15.277 2°45.061 12.8 283 17.1 100810 82
2006-08-25 07:06:41 51°15.278 2°45.027 12.8 345 17.1 100820 82
2006-08-25 07:06:46 51°15.278 2°45 14.1 345 17.1 100820 82
2006-08-25 07:06:50 51°15.279 2°44.977 13.7 345 17.1 100810 81
2006-08-25 07:06:56 51°15.28 2°44.943 12.8 281 17.1 100810 81
2006-08-25 07:07:01 51°15.28 2°44.914 14 344 17 100810 81
2006-08-25 07:07:05 51°15.281 2°44.892 14.5 281 17 100810 81
2006-08-25 07:07:11 51°15.282 2°44.857 14.1 346 17 100810 81
2006-08-25 07:07:16 51°15.282 2°44.831 14 278 17.1 100810 81
2006-08-25 07:07:21 51°15.282 2°44.802 13.5 347 17.1 100810 81
2006-08-25 07:07:26 51°15.283 2°44.773 12.9 280 17.1 100810 81
2006-08-25 07:07:31 51°15.282 2°44.745 13.7 345 17.1 100810 81
2006-08-25 07:07:36 51°15.284 2°44.717 12.6 281 17.1 100810 81
2006-08-25 07:07:41 51°15.284 2°44.691 12.8 344 17.1 100810 81
2006-08-25 07:07:45 51°15.285 2°44.668 12.9 280 17.1 100820 81
2006-08-25 07:07:51 51°15.286 2°44.634 13.5 346 17.1 100810 82
2006-08-25 07:07:56 51°15.286 2°44.607 14.2 281 17.1 100810 82
2006-08-25 07:08:01 51°15.287 2°44.578 14.1 348 17.2 100820 82
2006-08-25 07:08:05 51°15.287 2°44.556 13.1 280 17.2 100820 82
2006-08-25 07:08:10 51°15.288 2°44.528 13.7 346 17.1 100820 82
2006-08-25 07:08:16 51°15.289 2°44.495 11.9 282 17.1 100820 82
2006-08-25 07:08:21 51°15.291 2°44.468 13.4 344 17.1 100820 82
2006-08-25 07:08:25 51°15.291 2°44.446 13.4 278 17.1 100810 81
2006-08-25 07:08:31 51°15.293 2°44.411 13.3 344 17.1 100810 82
2006-08-25 07:08:36 51°15.294 2°44.384 13.3 277 17.1 100810 82
2006-08-25 07:08:41 51°15.295 2°44.357 13.8 343 17.2 100830 82
2006-08-25 07:08:46 51°15.296 2°44.329 14.5 277 17.2 100830 82
2006-08-25 07:08:51 51°15.298 2°44.3 14.3 342 17.2 100830 82
2006-08-25 07:08:55 51°15.299 2°44.279 14.5 280 17.2 100810 82
2006-08-25 07:09:01 51°15.3 2°44.245 13.5 345 17.1 100830 82
2006-08-25 07:09:06 51°15.301 2°44.218 14.2 285 17.1 100830 82
2006-08-25 07:09:10 51°15.303 2°44.196 13.8 345 17.1 100820 82
2006-08-25 07:09:15 51°15.304 2°44.168 12.9 347 17.1 100820 82
2006-08-25 07:09:21 51°15.306 2°44.134 13.5 342 17.1 100800 82
2006-08-25 07:09:25 51°15.307 2°44.113 12.3 284 17.1 100800 82
2006-08-25 07:09:31 51°15.308 2°44.08 14 342 17.1 100800 82
2006-08-25 07:09:36 51°15.31 2°44.051 14.6 283 17.1 100820 82
2006-08-25 07:09:41 51°15.311 2°44.024 13.9 342 17.2 100820 82
2006-08-25 07:09:46 51°15.312 2°43.995 13.9 280 17.2 100820 82
2006-08-25 07:09:51 51°15.314 2°43.968 13.9 342 17.2 100820 82
2006-08-25 07:09:56 51°15.316 2°43.94 14.3 281 17.2 100820 82
2006-08-25 07:10:01 51°15.318 2°43.913 13.5 341 17.1 100810 82
2006-08-25 07:10:06 51°15.32 2°43.885 14.2 281 17.1 100810 82
2006-08-25 07:10:11 51°15.321 2°43.858 14.9 342 17.1 100820 81
2006-08-25 07:10:16 51°15.323 2°43.83 13.8 280 17.1 100820 81
2006-08-25 07:10:21 51°15.325 2°43.802 13.9 343 17.1 100820 81
2006-08-25 07:10:25 51°15.327 2°43.78 14.7 285 17.1 100820 81
2006-08-25 07:10:30 51°15.329 2°43.753 13.7 344 17.1 100820 81
2006-08-25 07:10:35 51°15.331 2°43.725 13.9 280 17.1 100820 81
2006-08-25 07:10:41 51°15.332 2°43.693 14.5 344 17.1 100820 81
2006-08-25 07:10:45 51°15.333 2°43.669 13.6 280 17.1 100820 81
2006-08-25 07:10:51 51°15.335 2°43.638 13.2 346 17.1 100820 81
2006-08-25 07:10:56 51°15.336 2°43.61 13.6 283 17.1 100820 81
2006-08-25 07:11:01 51°15.338 2°43.582 13.2 344 17.1 100810 81
2006-08-25 07:11:06 51°15.339 2°43.555 14.1 276 17.1 100810 81
2006-08-25 07:11:11 51°15.341 2°43.527 13.6 342 17.1 100820 81
2006-08-25 07:11:16 51°15.342 2°43.5 13.3 282 17.1 100820 81
2006-08-25 07:11:21 51°15.343 2°43.472 13.5 342 17.1 100810 81
2006-08-25 07:11:26 51°15.345 2°43.444 14.7 279 17.1 100810 81
2006-08-25 07:11:31 51°15.346 2°43.416 14.5 345 17.1 100810 81
2006-08-25 07:11:36 51°15.348 2°43.389 13.5 282 17.1 100820 82
2006-08-25 07:11:41 51°15.35 2°43.361 13.7 343 17.1 100820 82
2006-08-25 07:11:46 51°15.351 2°43.334 12.9 284 17.1 100820 82
2006-08-25 07:11:51 51°15.353 2°43.306 13.8 344 17.1 100810 81
2006-08-25 07:11:56 51°15.354 2°43.279 14.3 282 17.1 100810 81
2006-08-25 07:12:01 51°15.355 2°43.251 13.4 345 17.1 100820 81
2006-08-25 07:12:06 51°15.355 2°43.223 13.1 280 17.1 100820 81
2006-08-25 07:12:11 51°15.355 2°43.197 13.3 347 17.1 100820 81
2006-08-25 07:12:15 51°15.354 2°43.175 13 348 17.1 100820 81
2006-08-25 07:12:21 51°15.353 2°43.141 11.5 347 17.1 100820 81
2006-08-25 07:12:26 51°15.352 2°43.113 12.4 283 17.1 100820 81
2006-08-25 07:12:31 51°15.351 2°43.086 13.3 352 17 100830 80
2006-08-25 07:12:36 51°15.349 2°43.058 12.7 351 17 100830 80
2006-08-25 07:12:41 51°15.347 2°43.031 11.9 350 17 100830 80
2006-08-25 07:12:46 51°15.344 2°43.002 13.4 350 17.1 100800 81
2006-08-25 07:12:51 51°15.343 2°42.975 13.2 351 17.1 100820 81
2006-08-25 07:12:56 51°15.341 2°42.947 13.4 352 17.1 100820 81
2006-08-25 07:13:01 51°15.339 2°42.919 12.5 350 17.2 100820 81
2006-08-25 07:13:05 51°15.338 2°42.897 11.9 349 17.2 100820 81
2006-08-25 07:13:11 51°15.335 2°42.865 12.5 350 17.2 100820 81
2006-08-25 07:13:16 51°15.333 2°42.836 12.3 351 17.1 100800 80
2006-08-25 07:13:21 51°15.331 2°42.808 11.6 346 17.1 100820 80
2006-08-25 07:13:25 51°15.329 2°42.786 11.5 282 17.1 100820 80
2006-08-25 07:13:30 51°15.327 2°42.759 12.3 350 17.1 100820 80
2006-08-25 07:13:35 51°15.325 2°42.731 12.4 351 17.1 100820 80
2006-08-25 07:13:41 51°15.323 2°42.697 11.1 350 17.1 100810 81
2006-08-25 07:13:45 51°15.322 2°42.675 13.2 349 17.1 100810 81
2006-08-25 07:13:51 51°15.319 2°42.641 13.2 353 17.1 100830 81
2006-08-25 07:13:56 51°15.318 2°42.614 13.1 349 17.1 100830 81
2006-08-25 07:14:01 51°15.316 2°42.585 13.8 348 17.1 100820 81
2006-08-25 07:14:06 51°15.315 2°42.558 12.3 279 17.1 100820 81
2006-08-25 07:14:11 51°15.313 2°42.531 13 347 17.1 100820 81
2006-08-25 07:14:16 51°15.311 2°42.503 13.7 347 17.1 100830 81
2006-08-25 07:14:21 51°15.309 2°42.475 13 344 17.1 100830 81
2006-08-25 07:14:26 51°15.308 2°42.447 13.3 280 17.2 100820 82
2006-08-25 07:14:29 51°15.307 2°42.431 14.3 344 17.2 100820 82
2006-08-25 07:14:36 51°15.307 2°42.392 13.4 286 17.2 100830 82
2006-08-25 07:14:41 51°15.307 2°42.365 14.4 345 17.2 100830 82
2006-08-25 07:14:45 51°15.306 2°42.343 14.2 283 17.2 100810 81
2006-08-25 07:14:51 51°15.307 2°42.31 13.2 345 17.1 100820 81
2006-08-25 07:14:56 51°15.307 2°42.282 12.8 282 17.1 100820 81
2006-08-25 07:15:01 51°15.307 2°42.258 13.8 348 17.1 100820 81
2006-08-25 07:15:06 51°15.307 2°42.234 12.8 347 17.1 100830 80
2006-08-25 07:15:10 51°15.308 2°42.215 12.4 346 17.1 100820 81
2006-08-25 07:15:16 51°15.309 2°42.193 11.4 278 17.1 100820 81
2006-08-25 07:15:21 51°15.31 2°42.173 10.9 341 17.1 100830 81
2006-08-25 07:15:26 51°15.312 2°42.156 10.8 282 17.1 100830 81
2006-08-25 07:15:31 51°15.315 2°42.139 10 339 17.1 100830 81
2006-08-25 07:15:36 51°15.317 2°42.124 11 282 17.1 100830 81
2006-08-25 07:15:41 51°15.321 2°42.11 10.2 336 17.1 100830 81
2006-08-25 07:15:46 51°15.324 2°42.098 11.2 283 17.1 100830 81
2006-08-25 07:15:50 51°15.326 2°42.089 11.2 336 17.2 100840 82
2006-08-25 07:15:56 51°15.33 2°42.076 10 278 17.2 100840 82
2006-08-25 07:16:01 51°15.333 2°42.066 9.3 333 17.2 100840 83
2006-08-25 07:16:05 51°15.335 2°42.059 10.3 282 17.2 100840 83
2006-08-25 07:16:10 51°15.338 2°42.05 9.1 334 17.2 100840 83
2006-08-25 07:16:15 51°15.341 2°42.041 9.7 281 17.2 100840 83
2006-08-25 07:16:21 51°15.344 2°42.032 10.8 332 17.2 100850 83
2006-08-25 07:16:25 51°15.346 2°42.026 10.4 281 17.2 100850 83
2006-08-25 07:16:31 51°15.349 2°42.017 10.2 330 17.2 100840 83
2006-08-25 07:16:36 51°15.352 2°42.01 10 282 17.2 100840 83
2006-08-25 07:16:41 51°15.354 2°42.004 9.8 328 17.2 100840 83
2006-08-25 07:16:46 51°15.355 2°41.998 8.6 285 17.2 100840 83
2006-08-25 07:16:51 51°15.357 2°41.992 9.6 330 17.2 100850 82
2006-08-25 07:16:55 51°15.358 2°41.988 9.2 283 17.2 100850 82
2006-08-25 07:17:01 51°15.361 2°41.981 9 333 17.2 100830 82
2006-08-25 07:17:06 51°15.363 2°41.975 8.8 284 17.2 100830 82
2006-08-25 07:17:10 51°15.365 2°41.971 8.3 326 17.2 100840 82
2006-08-25 07:17:16 51°15.367 2°41.964 8.6 280 17.2 100840 82
2006-08-25 07:17:21 51°15.37 2°41.958 8.4 326 17.2 100840 82
2006-08-25 07:17:25 51°15.372 2°41.954 7.7 279 17.2 100840 82
2006-08-25 07:17:31 51°15.375 2°41.948 7.5 323 17.2 100840 82
2006-08-25 07:17:36 51°15.377 2°41.943 11 283 17.2 100840 82
2006-08-25 07:17:41 51°15.379 2°41.938 9.9 322 17.2 100850 82
2006-08-25 07:17:45 51°15.381 2°41.934 9.6 278 17.2 100850 82
2006-08-25 07:17:51 51°15.384 2°41.929 10.3 323 17.2 100850 83
2006-08-25 07:17:56 51°15.386 2°41.924 9 282 17.2 100850 83
2006-08-25 07:18:01 51°15.389 2°41.92 8.9 318 17.2 100850 82
2006-08-25 07:18:06 51°15.391 2°41.916 8.9 280 17.2 100850 82
2006-08-25 07:18:11 51°15.394 2°41.912 10 321 17.1 100840 82
2006-08-25 07:18:16 51°15.397 2°41.908 8.9 280 17.1 100840 82
2006-08-25 07:18:21 51°15.4 2°41.905 9.2 320 17.1 100840 81
2006-08-25 07:18:26 51°15.402 2°41.901 8.4 279 17.1 100840 81
2006-08-25 07:18:31 51°15.405 2°41.897 8.4 316 17.1 100840 81
2006-08-25 07:18:36 51°15.406 2°41.894 8.3 276 17.1 100840 81
2006-08-25 07:18:41 51°15.408 2°41.891 8.2 318 17.1 100840 81
2006-08-25 07:18:45 51°15.411 2°41.888 9 279 17.1 100840 82
2006-08-25 07:18:50 51°15.414 2°41.885 9 316 17.1 100850 81
2006-08-25 07:18:56 51°15.416 2°41.88 9.2 282 17.1 100850 81
2006-08-25 07:19:01 51°15.418 2°41.877 9.9 318 17.1 100850 82
2006-08-25 07:19:06 51°15.421 2°41.874 8.9 281 17.1 100850 82
2006-08-25 07:19:11 51°15.423 2°41.871 8.9 37 17.1 100840 82
2006-08-25 07:19:15 51°15.425 2°41.868 10 282 17.1 100840 82
2006-08-25 07:19:21 51°15.429 2°41.864 9.7 36 17.1 100830 82
2006-08-25 07:19:26 51°15.431 2°41.861 10.5 278 17.1 100830 82
2006-08-25 07:19:31 51°15.433 2°41.858 10 317 17.1 100840 82
2006-08-25 07:19:36 51°15.436 2°41.855 9.9 282 17.1 100840 82
2006-08-25 07:19:41 51°15.438 2°41.852 9.5 317 17.1 100840 82
2006-08-25 07:19:46 51°15.44 2°41.849 9 277 17.1 100840 82
2006-08-25 07:19:51 51°15.441 2°41.846 9.4 319 17.1 100840 82
2006-08-25 07:19:55 51°15.442 2°41.843 9.5 279 17.1 100840 82
2006-08-25 07:20:01 51°15.444 2°41.84 9.3 320 17.1 100830 82
2006-08-25 07:20:06 51°15.446 2°41.837 9.6 280 17.1 100830 82
2006-08-25 07:20:11 51°15.447 2°41.835 8.8 318 17.1 100830 81
2006-08-25 07:20:16 51°15.448 2°41.832 8.7 279 17.1 100830 81
2006-08-25 07:20:20 51°15.449 2°41.83 8.6 321 17.1 100830 81
2006-08-25 07:20:26 51°15.449 2°41.827 8.3 285 17.1 100830 81
2006-08-25 07:20:31 51°15.45 2°41.825 7.7 320 17.1 100840 81
2006-08-25 07:20:36 51°15.449 2°41.823 8.4 283 17.1 100840 81
2006-08-25 07:20:40 51°15.449 2°41.821 7.7 320 17.1 100840 82
2006-08-25 07:20:45 51°15.448 2°41.82 7.3 284 17.1 100840 82
2006-08-25 07:20:51 51°15.446 2°41.818 7.1 319 17.1 100840 82
2006-08-25 07:20:56 51°15.445 2°41.817 6.8 279 17.1 100840 82
2006-08-25 07:21:01 51°15.443 2°41.816 6.6 317 17.1 100840 82
2006-08-25 07:21:06 51°15.442 2°41.814 5.2 276 17.1 100840 82
2006-08-25 07:21:11 51°15.44 2°41.813 6.4 317 17.1 100840 82
2006-08-25 07:21:16 51°15.438 2°41.812 6.5 282 17.1 100840 82
2006-08-25 07:21:22 51°15.436 2°41.811 6.5 34 17.1 100840 82
2006-08-25 07:21:27 51°15.435 2°41.809 6.7 279 17.1 100850 82
2006-08-25 07:21:31 51°15.433 2°41.809 7.3 317 17.2 100860 82
2006-08-25 07:21:36 51°15.432 2°41.808 7.7 281 17.2 100860 82
2006-08-25 07:21:41 51°15.43 2°41.807 8.4 318 17.2 100860 82
2006-08-25 07:21:45 51°15.428 2°41.806 7.8 284 17.1 100850 83
2006-08-25 07:21:51 51°15.426 2°41.804 7.6 35 17.2 100850 83
2006-08-25 07:21:55 51°15.425 2°41.803 6.4 283 17.2 100850 83
2006-08-25 07:22:01 51°15.422 2°41.802 7.6 237 17.2 100850 83
2006-08-25 07:22:06 51°15.42 2°41.8 7.3 280 17.2 100850 83
2006-08-25 07:22:11 51°15.418 2°41.799 7.7 233 17.2 100840 83
2006-08-25 07:22:16 51°15.417 2°41.798 7.5 282 17.2 100840 83
2006-08-25 07:22:21 51°15.415 2°41.796 8.9 241 17.2 100850 83
2006-08-25 07:22:26 51°15.413 2°41.795 8.5 281 17.2 100850 83
2006-08-25 07:22:31 51°15.411 2°41.794 7.8 242 17.2 100850 83
2006-08-25 07:22:36 51°15.409 2°41.793 8.4 278 17.2 100870 83
2006-08-25 07:22:41 51°15.407 2°41.791 8.3 239 17.2 100860 83
2006-08-25 07:22:45 51°15.405 2°41.79 8.6 281 17.2 100860 83
2006-08-25 07:22:51 51°15.403 2°41.789 8.9 241 17.2 100850 82
2006-08-25 07:22:56 51°15.401 2°41.787 7.6 284 17.2 100850 82
2006-08-25 07:23:01 51°15.398 2°41.786 8.1 243 17.2 100860 82
2006-08-25 07:23:06 51°15.397 2°41.785 7.6 279 17.2 100860 82
2006-08-25 07:23:11 51°15.395 2°41.784 7.5 246 17.2 100850 82
2006-08-25 07:23:16 51°15.393 2°41.782 8.1 283 17.2 100850 82
2006-08-25 07:23:21 51°15.39 2°41.78 7.1 246 17.2 100850 82
2006-08-25 07:23:26 51°15.388 2°41.778 6.9 279 17.2 100860 82
2006-08-25 07:23:31 51°15.386 2°41.777 7.7 249 17.2 100860 82
2006-08-25 07:23:36 51°15.384 2°41.776 7.1 277 17.2 100860 82
2006-08-25 07:23:41 51°15.382 2°41.774 8.3 253 17.1 100860 82
2006-08-25 07:23:46 51°15.381 2°41.773 7.7 284 17.1 100860 82
2006-08-25 07:23:51 51°15.379 2°41.771 8.7 255 17.2 100860 82
2006-08-25 07:23:55 51°15.377 2°41.77 7.9 284 17.2 100860 82
2006-08-25 07:24:00 51°15.375 2°41.768 8 256 17.1 100870 82
2006-08-25 07:24:05 51°15.373 2°41.766 7.4 278 17.1 100870 82
2006-08-25 07:24:10 51°15.372 2°41.764 6.8 252 17.1 100860 82
2006-08-25 07:24:16 51°15.369 2°41.762 7 284 17.1 100860 82
2006-08-25 07:24:21 51°15.367 2°41.759 7.9 255 17.1 100860 82
2006-08-25 07:24:26 51°15.366 2°41.758 8.5 286 17.1 100860 82
2006-08-25 07:24:31 51°15.364 2°41.756 8.8 257 17.1 100860 82
2006-08-25 07:24:35 51°15.362 2°41.755 9.1 279 17.1 100860 82
2006-08-25 07:24:41 51°15.359 2°41.752 8.1 257 17.2 100860 83
2006-08-25 07:24:45 51°15.358 2°41.749 6 286 17.2 100860 83
2006-08-25 07:24:51 51°15.356 2°41.747 5.9 263 17.2 100860 83
2006-08-25 07:24:55 51°15.354 2°41.745 4.8 284 17.2 100860 83
2006-08-25 07:25:01 51°15.352 2°41.742 5.2 263 17.2 100870 83
2006-08-25 07:25:06 51°15.35 2°41.74 5.5 281 17.2 100870 83
2006-08-25 07:25:10 51°15.349 2°41.738 6.9 265 17.2 100870 83
2006-08-25 07:25:16 51°15.347 2°41.735 7 277 17.2 100860 83
2006-08-25 07:25:21 51°15.345 2°41.733 7.3 263 17.2 100860 83
2006-08-25 07:25:26 51°15.343 2°41.73 6.5 278 17.2 100860 83
2006-08-25 07:25:31 51°15.342 2°41.727 6.1 266 17.2 100870 83
2006-08-25 07:25:36 51°15.34 2°41.725 6.9 278 17.2 100870 83
2006-08-25 07:25:41 51°15.338 2°41.723 7.4 270 17.2 100870 83
2006-08-25 07:25:46 51°15.337 2°41.721 6.9 281 17.2 100870 83
2006-08-25 07:25:51 51°15.335 2°41.718 6.8 268 17.2 100870 83
2006-08-25 07:25:55 51°15.334 2°41.717 8.5 290 17.2 100870 83
2006-08-25 07:26:01 51°15.332 2°41.713 7.3 267 17.2 100870 83
2006-08-25 07:26:06 51°15.33 2°41.711 8.6 282 17.2 100870 83
2006-08-25 07:26:11 51°15.328 2°41.708 8.8 268 17.2 100870 83
2006-08-25 07:26:16 51°15.327 2°41.706 8.7 286 17.2 100870 83
2006-08-25 07:26:21 51°15.326 2°41.703 9 270 17.2 100870 83
2006-08-25 07:26:26 51°15.324 2°41.701 8.4 282 17.2 100870 83
2006-08-25 07:26:31 51°15.322 2°41.699 8.5 270 17.2 100860 83
2006-08-25 07:26:36 51°15.321 2°41.697 9.3 76 17.2 100860 83
2006-08-25 07:26:41 51°15.319 2°41.695 8.5 40 17.1 100870 82
2006-08-25 07:26:45 51°15.318 2°41.693 8 281 17.1 100870 82
2006-08-25 07:26:51 51°15.316 2°41.691 7.8 33 17.1 100880 82
2006-08-25 07:26:56 51°15.314 2°41.688 7.5 81 17.1 100880 82
2006-08-25 07:27:01 51°15.313 2°41.686 7.6 33 17.1 100880 82
2006-08-25 07:27:05 51°15.312 2°41.685 8.4 74 17.1 100880 82
2006-08-25 07:27:11 51°15.31 2°41.683 6.5 32 17.1 100870 82
2006-08-25 07:27:16 51°15.308 2°41.681 8.6 77 17.1 100870 82
2006-08-25 07:27:21 51°15.307 2°41.679 8.2 40 17.1 100870 82
2006-08-25 07:27:26 51°15.305 2°41.677 8.6 80 17.1 100870 82
2006-08-25 07:27:31 51°15.304 2°41.676 8.5 40 17.1 100870 82
2006-08-25 07:27:36 51°15.302 2°41.674 7 81 17.1 100870 83
2006-08-25 07:27:41 51°15.301 2°41.672 7.4 35 17.1 100870 82
2006-08-25 07:27:46 51°15.299 2°41.671 6.9 75 17.1 100870 82
2006-08-25 07:27:51 51°15.298 2°41.669 7.2 37 17.1 100870 82
2006-08-25 07:27:56 51°15.297 2°41.668 7.5 75 17.1 100870 82
2006-08-25 07:28:01 51°15.295 2°41.667 8.1 38 17.1 100870 82
2006-08-25 07:28:05 51°15.294 2°41.665 8.2 76 17.1 100870 82
2006-08-25 07:28:10 51°15.292 2°41.664 7.1 38 17 100870 82
2006-08-25 07:28:15 51°15.291 2°41.663 8.4 76 17 100870 82
2006-08-25 07:28:21 51°15.289 2°41.661 6.8 38 17 100870 82
2006-08-25 07:28:26 51°15.288 2°41.66 7.1 82 17 100870 82
2006-08-25 07:28:31 51°15.287 2°41.658 8.6 33 17 100870 82
2006-08-25 07:28:35 51°15.285 2°41.657 7.2 80 17 100870 82
2006-08-25 07:28:41 51°15.284 2°41.656 7.6 266 17 100880 81
2006-08-25 07:28:46 51°15.282 2°41.655 7.2 82 17 100880 81
2006-08-25 07:28:51 51°15.281 2°41.653 6.5 36 17 100880 81
2006-08-25 07:28:56 51°15.279 2°41.652 7 81 17 100880 81
2006-08-25 07:29:01 51°15.278 2°41.651 7.9 34 17 100880 81
2006-08-25 07:29:06 51°15.277 2°41.65 7.8 76 17 100880 81
2006-08-25 07:29:11 51°15.276 2°41.649 7.9 36 17 100870 82
2006-08-25 07:29:15 51°15.274 2°41.648 7.9 76 17 100870 82
2006-08-25 07:29:21 51°15.273 2°41.647 8.6 27 17 100870 82
2006-08-25 07:29:26 51°15.271 2°41.646 7.3 286 17 100870 82
2006-08-25 07:29:31 51°15.27 2°41.645 6.9 269 17 100870 82
2006-08-25 07:29:36 51°15.268 2°41.644 7.6 280 17 100870 82
2006-08-25 07:29:41 51°15.267 2°41.643 9.3 270 17 100880 82
2006-08-25 07:29:46 51°15.265 2°41.642 8.1 280 17 100880 82
2006-08-25 07:29:51 51°15.263 2°41.64 7.4 269 17 100880 82
2006-08-25 07:29:55 51°15.262 2°41.639 8.6 286 17.1 100870 82
2006-08-25 07:30:01 51°15.261 2°41.639 7 268 17.1 100870 82
2006-08-25 07:30:06 51°15.26 2°41.637 7.1 284 17.1 100880 83
2006-08-25 07:30:11 51°15.258 2°41.637 6.7 268 17 100880 82
2006-08-25 07:30:16 51°15.257 2°41.635 6.9 285 17 100880 82
2006-08-25 07:30:21 51°15.256 2°41.635 7.6 269 17 100870 81
2006-08-25 07:30:26 51°15.254 2°41.634 7.9 280 17 100870 81
2006-08-25 07:30:31 51°15.253 2°41.632 6.6 269 17 100870 82
2006-08-25 07:30:36 51°15.252 2°41.631 7.3 279 17 100870 82
2006-08-25 07:30:41 51°15.25 2°41.63 7.3 269 17 100880 82
2006-08-25 07:30:46 51°15.249 2°41.629 7.6 281 17 100880 82
2006-08-25 07:30:51 51°15.247 2°41.628 7.2 270 17 100880 81
2006-08-25 07:30:56 51°15.246 2°41.627 7.5 282 17 100880 81
2006-08-25 07:31:01 51°15.244 2°41.625 6.5 267 17 100880 81
2006-08-25 07:31:06 51°15.243 2°41.624 5.7 283 17 100880 81
2006-08-25 07:31:11 51°15.242 2°41.622 5.9 263 17 100880 82
2006-08-25 07:31:16 51°15.24 2°41.622 5.8 280 17 100880 82
2006-08-25 07:31:21 51°15.239 2°41.62 5.9 261 17 100870 82
2006-08-25 07:31:26 51°15.237 2°41.619 5.1 284 17 100870 82
2006-08-25 07:31:31 51°15.236 2°41.618 5.6 265 17 100880 82
2006-08-25 07:31:36 51°15.235 2°41.616 5.5 284 17 100880 82
2006-08-25 07:31:41 51°15.233 2°41.615 5.5 268 17 100870 82
2006-08-25 07:31:46 51°15.232 2°41.614 6.1 286 17 100870 82
2006-08-25 07:31:51 51°15.231 2°41.613 6.4 266 17.1 100870 82
2006-08-25 07:31:56 51°15.229 2°41.612 5.9 279 17.1 100870 82
2006-08-25 07:32:01 51°15.228 2°41.613 6.5 267 17.1 100870 83
2006-08-25 07:32:06 51°15.228 2°41.613 7.4 280 17.1 100870 83
2006-08-25 07:32:11 51°15.228 2°41.615 7.1 260 17.1 100880 82
2006-08-25 07:32:16 51°15.228 2°41.616 9 280 17.1 100880 82
2006-08-25 07:32:21 51°15.228 2°41.616 9.7 256 17 100880 82
2006-08-25 07:32:26 51°15.229 2°41.618 9 282 17 100880 82
2006-08-25 07:32:31 51°15.23 2°41.618 8.4 247 17 100880 82
2006-08-25 07:32:36 51°15.231 2°41.619 8.1 280 17 100870 82
2006-08-25 07:32:41 51°15.233 2°41.62 8.6 241 17 100870 82
2006-08-25 07:32:46 51°15.234 2°41.62 8.5 281 17 100870 82
2006-08-25 07:32:51 51°15.237 2°41.62 8.7 235 17 100880 82
2006-08-25 07:32:56 51°15.239 2°41.619 9.7 281 17 100880 82
2006-08-25 07:33:01 51°15.242 2°41.618 9.3 35 17 100860 82
2006-08-25 07:33:06 51°15.245 2°41.617 9.8 283 17 100860 82
2006-08-25 07:33:11 51°15.248 2°41.615 9.9 315 17 100860 82
2006-08-25 07:33:16 51°15.251 2°41.612 9.1 277 17 100860 82
2006-08-25 07:33:21 51°15.254 2°41.609 9.4 319 17 100860 82
2006-08-25 07:33:26 51°15.258 2°41.605 10.2 279 17 100860 81
2006-08-25 07:33:31 51°15.261 2°41.601 9.8 322 17 100840 81
2006-08-25 07:33:36 51°15.265 2°41.595 9.2 281 17 100840 81
2006-08-25 07:33:41 51°15.269 2°41.59 9.6 323 17 100850 81
2006-08-25 07:33:46 51°15.273 2°41.583 10.2 284 17 100850 81
2006-08-25 07:33:51 51°15.277 2°41.576 10 326 17 100840 81
2006-08-25 07:33:55 51°15.28 2°41.57 10.1 278 17 100840 81
2006-08-25 07:34:01 51°15.284 2°41.558 10.1 331 17 100850 81
2006-08-25 07:34:06 51°15.287 2°41.548 9 284 17 100850 81
2006-08-25 07:34:10 51°15.289 2°41.539 9.6 340 17 100850 81
2006-08-25 07:34:15 51°15.291 2°41.529 9.3 282 17 100850 81
2006-08-25 07:34:21 51°15.291 2°41.514 9.8 343 17 100850 81
2006-08-25 07:34:26 51°15.292 2°41.502 10.9 278 17 100850 81
2006-08-25 07:34:31 51°15.292 2°41.488 11.1 345 17 100850 81
2006-08-25 07:34:36 51°15.292 2°41.475 11.3 278 17 100860 81
2006-08-25 07:34:41 51°15.293 2°41.46 10.6 344 17 100850 81
2006-08-25 07:34:46 51°15.293 2°41.447 10.8 279 17 100850 81
2006-08-25 07:34:51 51°15.294 2°41.434 10.4 344 17 100840 81
2006-08-25 07:34:56 51°15.295 2°41.422 10.4 285 17 100840 81
2006-08-25 07:35:01 51°15.296 2°41.412 9.8 343 17 100840 81
2006-08-25 07:35:06 51°15.296 2°41.401 9.2 280 17 100840 81
2006-08-25 07:35:11 51°15.297 2°41.392 8.6 341 17 100840 81
2006-08-25 07:35:16 51°15.297 2°41.385 8.8 282 17 100840 81
2006-08-25 07:35:21 51°15.297 2°41.377 8.6 341 17 100840 81
2006-08-25 07:35:26 51°15.297 2°41.37 9 280 17 100840 81
2006-08-25 07:35:31 51°15.297 2°41.364 8.9 337 17.1 100850 82
2006-08-25 07:35:36 51°15.297 2°41.36 8.8 277 17.1 100850 82
2006-08-25 07:35:41 51°15.297 2°41.355 8.6 338 17.1 100860 82
2006-08-25 07:35:45 51°15.296 2°41.353 7.9 284 17.1 100860 82
2006-08-25 07:35:51 51°15.295 2°41.349 7.3 336 17.1 100860 82
2006-08-25 07:35:55 51°15.294 2°41.347 8 282 17.1 100860 82
2006-08-25 07:36:01 51°15.292 2°41.346 7.6 334 17.1 100860 81
2006-08-25 07:36:06 51°15.291 2°41.345 7.2 279 17.1 100860 81
2006-08-25 07:36:10 51°15.289 2°41.344 7.1 331 17.1 100860 81
2006-08-25 07:36:16 51°15.286 2°41.344 7.1 281 17.1 100860 81
2006-08-25 07:36:22 51°15.284 2°41.343 6.9 332 17 100860 81
2006-08-25 07:36:26 51°15.282 2°41.343 6.7 277 17 100860 81
2006-08-25 07:36:32 51°15.28 2°41.342 6.8 333 17 100860 81
2006-08-25 07:36:37 51°15.278 2°41.341 6.9 286 17 100860 81
2006-08-25 07:36:42 51°15.276 2°41.341 6.8 334 17 100860 80
2006-08-25 07:36:47 51°15.273 2°41.34 6.7 285 17 100860 80
2006-08-25 07:36:52 51°15.272 2°41.34 7 336 17 100860 80
2006-08-25 07:36:56 51°15.27 2°41.339 6.7 284 17 100860 80
2006-08-25 07:37:01 51°15.268 2°41.339 5.7 340 17 100860 80
2006-08-25 07:37:05 51°15.266 2°41.339 5.6 282 17 100860 80
2006-08-25 07:37:11 51°15.263 2°41.338 7.3 344 17 100860 80
2006-08-25 07:37:15 51°15.262 2°41.338 7.7 281 17 100860 80
2006-08-25 07:37:21 51°15.26 2°41.337 7.5 345 17 100860 80
2006-08-25 07:37:26 51°15.258 2°41.336 7.1 282 17 100860 81
2006-08-25 07:37:31 51°15.257 2°41.334 7.8 339 17.1 100860 81
2006-08-25 07:37:36 51°15.255 2°41.333 6.6 284 17.1 100860 81
2006-08-25 07:37:41 51°15.254 2°41.332 6.4 343 17.1 100860 81
2006-08-25 07:37:46 51°15.252 2°41.33 6.5 279 17.1 100850 81
2006-08-25 07:37:51 51°15.251 2°41.328 7.6 344 17.1 100860 82
2006-08-25 07:37:56 51°15.249 2°41.327 7.7 280 17.1 100860 82
2006-08-25 07:38:01 51°15.248 2°41.325 7.8 345 17.1 100860 82
2006-08-25 07:38:05 51°15.246 2°41.325 7.2 284 17.1 100860 82
2006-08-25 07:38:11 51°15.245 2°41.323 6.9 349 17.1 100860 82
2006-08-25 07:38:16 51°15.243 2°41.322 6 280 17.1 100860 82
2006-08-25 07:38:21 51°15.241 2°41.321 5.5 348 17.1 100860 82
2006-08-25 07:38:25 51°15.24 2°41.32 5.9 350 17.1 100860 82
2006-08-25 07:38:31 51°15.238 2°41.319 6.6 350 17.1 100860 82
2006-08-25 07:38:36 51°15.236 2°41.318 6.4 354 17.1 100850 81
2006-08-25 07:38:41 51°15.235 2°41.317 6.7 351 17.1 100860 81
2006-08-25 07:38:46 51°15.233 2°41.316 6.7 356 17.1 100860 81
2006-08-25 07:38:51 51°15.232 2°41.316 6.9 357 17.1 100860 81
2006-08-25 07:38:56 51°15.23 2°41.315 6.4 353 17.1 100860 81
2006-08-25 07:39:01 51°15.229 2°41.314 8 355 17.1 100860 81
2006-08-25 07:39:06 51°15.227 2°41.313 7.9 356 17.1 100860 81
2006-08-25 07:39:10 51°15.225 2°41.313 6.7 359 17.1 100860 81
2006-08-25 07:39:16 51°15.223 2°41.312 7.1 3 17.1 100860 81
2006-08-25 07:39:21 51°15.222 2°41.311 7.1 359 17.1 100860 81
2006-08-25 07:39:26 51°15.221 2°41.31 7.6 -999 17.1 100860 81
2006-08-25 07:39:31 51°15.219 2°41.31 7.5 1 17.1 100860 81
2006-08-25 07:39:35 51°15.218 2°41.31 7.5 360 17.1 100860 81
2006-08-25 07:39:41 51°15.216 2°41.308 7.8 1 17.1 100850 81
2006-08-25 07:39:46 51°15.215 2°41.308 7.4 2 17.1 100850 81
2006-08-25 07:39:51 51°15.213 2°41.307 7.2 4 17 100850 81
2006-08-25 07:39:56 51°15.211 2°41.307 7.2 4 17 100850 81
2006-08-25 07:40:01 51°15.21 2°41.306 6.7 4 17 100850 81
2006-08-25 07:40:06 51°15.209 2°41.305 6.9 4 17 100850 81
2006-08-25 07:40:11 51°15.207 2°41.304 6.5 7 17 100850 81
2006-08-25 07:40:16 51°15.206 2°41.303 6.1 4 17 100850 81
2006-08-25 07:40:21 51°15.204 2°41.302 7.4 8 17 100850 81
2006-08-25 07:40:26 51°15.203 2°41.301 9.3 11 17 100850 81
2006-08-25 07:40:31 51°15.201 2°41.3 8.8 11 17 100850 81
2006-08-25 07:40:36 51°15.2 2°41.3 7.8 15 17 100850 81
2006-08-25 07:40:41 51°15.198 2°41.298 7.4 13 17.1 100850 81
2006-08-25 07:40:45 51°15.198 2°41.297 6.9 14 17.1 100850 81
2006-08-25 07:40:50 51°15.196 2°41.297 7.4 13 17 100840 81
2006-08-25 07:40:56 51°15.194 2°41.296 8 15 17 100840 81
2006-08-25 07:41:01 51°15.192 2°41.295 6.8 15 17 100850 81
2006-08-25 07:41:06 51°15.191 2°41.294 7 14 17 100850 81
2006-08-25 07:41:11 51°15.19 2°41.293 7.1 15 17 100850 81
2006-08-25 07:41:16 51°15.188 2°41.292 6.9 18 17 100850 81
2006-08-25 07:41:21 51°15.187 2°41.291 7.4 19 17 100850 81
2006-08-25 07:41:26 51°15.186 2°41.29 6.7 13 17 100850 81
2006-08-25 07:41:31 51°15.184 2°41.289 7.3 16 17 100850 81
2006-08-25 07:41:36 51°15.183 2°41.288 6.6 18 17 100850 81
2006-08-25 07:41:41 51°15.181 2°41.287 7.2 20 17 100860 82
2006-08-25 07:41:46 51°15.18 2°41.286 7.1 23 17 100860 82
2006-08-25 07:41:51 51°15.178 2°41.285 7.8 23 17.1 100860 82
2006-08-25 07:41:56 51°15.177 2°41.284 6.9 23 17.1 100860 82
2006-08-25 07:42:01 51°15.175 2°41.283 6.4 24 17.1 100860 83
2006-08-25 07:42:06 51°15.174 2°41.283 6.7 21 17.1 100860 83
2006-08-25 07:42:11 51°15.173 2°41.281 6.2 23 17.1 100870 82
2006-08-25 07:42:16 51°15.171 2°41.28 6.6 24 17.1 100870 82
2006-08-25 07:42:21 51°15.17 2°41.279 6 24 17.1 100860 81
2006-08-25 07:42:26 51°15.168 2°41.277 6.6 24 17.1 100860 81
2006-08-25 07:42:31 51°15.167 2°41.276 7.3 26 17.1 100860 81
2006-08-25 07:42:35 51°15.165 2°41.275 6.5 23 17.1 100860 81
2006-08-25 07:42:41 51°15.164 2°41.274 7.5 25 17.1 100850 81
2006-08-25 07:42:46 51°15.162 2°41.273 6.6 25 17.1 100850 81
2006-08-25 07:42:51 51°15.161 2°41.271 8.2 23 17.1 100860 81
2006-08-25 07:42:56 51°15.159 2°41.27 8.1 24 17.1 100860 81
2006-08-25 07:43:01 51°15.157 2°41.269 7.4 23 17.1 100850 82
2006-08-25 07:43:06 51°15.155 2°41.268 8.2 24 17.1 100850 82
2006-08-25 07:43:10 51°15.154 2°41.267 7.6 23 17.1 100860 82
2006-08-25 07:43:16 51°15.152 2°41.265 7.5 23 17.1 100860 82
2006-08-25 07:43:21 51°15.151 2°41.264 7 25 17.1 100860 81
2006-08-25 07:43:26 51°15.149 2°41.263 7.7 23 17.1 100860 81
2006-08-25 07:43:30 51°15.148 2°41.262 7.5 21 17.1 100860 81
2006-08-25 07:43:35 51°15.146 2°41.261 7.2 24 17.1 100860 81
2006-08-25 07:43:41 51°15.144 2°41.259 7.6 23 17.1 100860 81
2006-08-25 07:43:46 51°15.143 2°41.258 7.2 23 17.1 100860 81
2006-08-25 07:43:51 51°15.141 2°41.256 7.2 23 17.1 100860 81
2006-08-25 07:43:55 51°15.14 2°41.255 6.6 26 17.1 100860 81
2006-08-25 07:44:01 51°15.138 2°41.254 6.3 24 17.1 100860 81
2006-08-25 07:44:06 51°15.136 2°41.253 6.9 25 17.1 100860 81
2006-08-25 07:44:11 51°15.135 2°41.251 7.2 26 17 100860 80
2006-08-25 07:44:16 51°15.134 2°41.25 6.1 22 17 100860 80
2006-08-25 07:44:21 51°15.132 2°41.249 6.5 17 17 100860 80
2006-08-25 07:44:26 51°15.13 2°41.248 6.3 22 17 100860 80
2006-08-25 07:44:31 51°15.129 2°41.247 6.1 21 17 100860 80
2006-08-25 07:44:36 51°15.127 2°41.246 7.1 22 17 100860 80
2006-08-25 07:44:41 51°15.126 2°41.244 6.7 24 17.1 100860 81
2006-08-25 07:44:46 51°15.124 2°41.243 7.2 24 17.1 100860 81
2006-08-25 07:44:51 51°15.123 2°41.242 7.8 22 17.1 100860 81
2006-08-25 07:44:56 51°15.121 2°41.24 7.4 23 17.1 100860 81
2006-08-25 07:45:01 51°15.119 2°41.239 8 23 17.1 100860 82
2006-08-25 07:45:06 51°15.118 2°41.238 7.5 22 17.1 100860 82
2006-08-25 07:45:11 51°15.116 2°41.236 7.5 24 17.1 100860 81
2006-08-25 07:45:16 51°15.115 2°41.234 7 25 17.1 100860 81
2006-08-25 07:45:21 51°15.113 2°41.233 6.8 20 17.1 100870 81
2006-08-25 07:45:26 51°15.112 2°41.232 7 19 17.1 100870 81
2006-08-25 07:45:31 51°15.11 2°41.231 6.7 19 17.1 100860 81
2006-08-25 07:45:36 51°15.108 2°41.23 7.3 21 17.1 100860 81
2006-08-25 07:45:41 51°15.107 2°41.229 6.9 23 17.1 100870 81
2006-08-25 07:45:46 51°15.105 2°41.228 7.7 17 17.1 100870 81
2006-08-25 07:45:51 51°15.104 2°41.226 7.1 15 17.1 100860 81
2006-08-25 07:45:56 51°15.102 2°41.225 7.7 18 17.1 100860 81
2006-08-25 07:46:01 51°15.1 2°41.224 7.2 19 17.1 100860 82
2006-08-25 07:46:06 51°15.099 2°41.222 7.3 19 17.1 100860 82
2006-08-25 07:46:11 51°15.098 2°41.221 7 21 17.2 100860 82
2006-08-25 07:46:16 51°15.096 2°41.22 6.7 17 17.2 100860 82
2006-08-25 07:46:21 51°15.095 2°41.218 6.7 17 17.2 100860 82
2006-08-25 07:46:26 51°15.093 2°41.217 6.7 18 17.2 100860 82